Wind_Speed
39 39 33 24 29 29 33 32 28 23 22 22 21 19 16 16 14 11 8 7 9 10 11 12 12 12 13 12 12 13 13 14 13 13 13 16 18 22 25 25 25 30 31 41
38 40 38 30 31 31 33 30 34 29 25 23 22 18 18 18 16 13 11 12 14 13 13 14 16 16 17 18 19 20 21 21 21 21 22 23 26 27 27 27 29 33 35 40
44 45 38 34 31 32 32 31 33 33 29 26 24 21 21 20 17 15 16 16 16 16 17 19 21 22 23 23 25 27 28 27 29 31 30 29 30 27 27 29 31 33 43 37
46 45 42 40 34 34 32 31 33 34 32 29 27 25 23 21 20 21 22 22 23 24 24 25 25 26 27 28 27 28 29 30 30 29 29 30 32 34 34 33 37 39 40 43
52 48 45 46 38 38 37 32 34 35 34 31 30 28 26 25 24 25 26 28 28 28 28 29 30 31 32 32 32 31 31 30 32 35 32 34 38 37 38 39 41 42 45 50
57 57 52 48 43 42 42 40 39 38 38 36 33 31 30 30 29 29 29 30 30 31 32 33 34 35 35 36 36 36 36 31 29 34 36 40 45 42 43 45 48 50 53 58
58 60 58 51 50 43 45 43 41 43 42 41 38 37 36 34 34 33 32 33 33 33 35 36 37 38 40 41 42 40 38 37 34 38 38 42 48 43 46 48 55 55 58 61
62 66 64 59 57 52 47 48 45 44 45 46 45 43 42 41 40 40 38 38 39 39 40 41 42 43 44 45 44 41 42 40 39 39 39 43 51 49 51 55 57 60 64 69
63 65 62 60 57 54 54 53 50 48 48 48 47 47 48 47 45 43 44 45 45 46 45 44 43 44 46 43 44 44 46 45 44 43 43 47 52 53 58 61 63 70 73 74
67 65 65 65 65 63 60 58 56 53 50 50 50 52 51 50 48 49 48 49 50 49 49 48 47 48 46 43 45 48 48 47 47 47 50 55 59 62 66 69 72 74 76 81
64 65 63 61 60 58 59 61 59 56 53 51 51 51 50 50 50 50 52 52 52 51 51 51 52 47 45 46 48 52 52 49 51 54 61 64 66 68 73 76 74 80 86 91
55 63 65 64 63 61 60 62 62 59 58 56 54 51 50 50 50 53 55 56 54 52 54 55 51 45 47 50 52 55 56 57 58 60 66 70 72 76 78 80 84 87 94 97
54 57 60 61 60 60 60 61 62 63 63 61 58 55 54 54 54 55 55 56 56 57 59 56 51 49 50 51 53 56 63 65 64 65 72 75 79 81 85 88 92 96 103 109
56 55 58 59 62 62 63 66 67 66 66 64 62 59 57 58 57 58 58 61 61 61 59 56 54 56 56 55 59 62 70 70 71 74 79 80 85 88 92 96 103 106 110 114
57 57 57 55 60 63 66 67 68 69 69 66 66 63 62 61 62 62 62 61 59 60 58 60 60 60 61 61 64 68 75 77 79 80 84 86 89 95 100 105 107 115 115 118
58 56 56 58 59 59 62 65 68 70 70 68 70 67 66 66 66 64 64 65 63 63 63 65 64 67 68 68 70 74 79 82 83 84 88 92 97 99 107 112 115 115 123 125
65 62 62 62 60 58 57 58 64 65 64 63 61 60 62 62 62 64 66 66 66 64 63 64 69 74 75 74 77 82 84 86 88 92 99 102 106 108 112 118 122 125 127 123
73 70 67 66 65 63 60 61 63 64 63 60 55 54 58 64 68 71 71 69 69 66 68 69 73 75 78 79 84 87 90 92 97 101 105 109 113 119 123 126 127 123 123 122
79 79 76 72 69 65 64 69 68 68 67 63 58 58 63 64 69 72 75 75 74 74 77 79 82 85 89 91 95 95 98 101 105 108 111 116 122 123 125 126 127 120 119 121
84 84 83 79 75 76 77 76 74 74 71 67 65 67 69 72 76 79 81 82 81 82 83 86 86 88 92 97 99 101 104 107 110 115 120 123 121 123 125 126 122 120 117 112
93 91 88 85 86 85 85 87 84 80 78 76 75 78 82 84 85 86 86 86 87 87 87 91 91 94 101 103 105 108 111 114 120 123 119 121 122 119 117 116 116 113 111 109
94 93 92 92 91 91 92 91 87 86 86 85 87 88 88 90 91 92 94 95 96 97 97 98 98 102 106 109 112 114 117 121 118 118 121 121 118 115 113 113 109 107 108 109
101 101 99 97 95 96 93 91 92 92 92 93 93 95 95 95 96 98 101 103 103 104 104 106 109 111 112 114 116 114 115 115 119 122 120 116 113 109 111 109 109 109 107 107
103 102 102 100 100 98 97 95 94 96 97 99 99 100 102 102 103 105 107 107 108 111 112 115 115 117 116 115 115 117 116 118 118 116 114 112 110 106 109 110 109 107 105 103
108 107 106 100 99 97 98 99 102 105 105 104 107 108 107 107 109 109 112 116 119 117 115 114 112 112 114 119 119 118 119 117 115 114 112 108 107 106 105 106 104 104 101 97
102 106 107 107 107 106 105 107 106 106 108 105 103 108 110 112 112 110 110 112 113 114 110 109 109 114 118 115 115 115 113 112 111 111 108 105 105 103 100 99 100 97 93 88
98 99 103 107 106 104 104 104 105 104 104 105 103 101 104 105 104 107 114 116 112 108 108 114 116 112 114 114 113 111 109 108 109 107 104 102 100 98 96 94 91 88 85 79
Wind_Direction
204 206 196 201 189 194 196 196 197 196 200 204 213 217 226 230 229 238 250 262 278 284 297 300 311 325 320 320 321 324 329 330 334 328 321 321 310 302 298 296 297 294 297 290
205 203 203 205 199 199 202 207 209 207 207 213 217 223 235 233 237 241 253 262 272 288 299 301 303 310 313 312 311 311 311 312 309 304 298 296 297 299 299 296 292 296 297 299
203 207 211 209 214 205 206 215 216 214 213 215 220 225 234 236 242 252 259 266 273 283 290 294 300 305 303 304 304 303 303 302 303 302 299 298 297 298 302 296 290 292 302 302
207 208 212 215 220 219 212 217 218 218 214 218 220 226 233 239 245 255 263 270 276 281 284 288 292 295 299 302 303 302 302 305 308 306 305 300 294 300 303 302 297 297 299 299
210 211 213 219 223 226 218 217 219 220 217 221 226 229 234 241 246 254 260 266 271 275 279 281 284 288 292 296 299 299 299 296 301 302 304 302 299 302 304 302 301 299 299 298
210 217 218 220 221 229 229 223 219 221 223 224 230 233 237 243 249 254 262 267 272 274 278 282 284 286 290 294 298 299 298 295 296 297 301 302 299 301 304 305 304 304 303 303
208 217 219 223 224 230 233 231 227 225 225 229 232 237 241 246 253 258 264 269 271 273 276 281 285 290 292 296 295 295 297 293 292 295 298 296 293 301 303 305 302 302 301 301
213 216 220 226 225 230 234 238 233 233 231 233 236 241 246 251 255 258 264 269 271 273 278 283 286 289 292 297 297 293 293 293 294 294 296 298 298 302 302 303 302 304 304 303
213 215 218 222 223 227 231 236 239 238 238 239 241 242 247 252 256 261 267 270 273 276 281 286 290 295 295 296 293 291 291 293 296 298 299 298 298 297 299 303 304 305 306 305
219 220 221 222 225 229 230 234 238 243 245 243 245 247 249 254 259 263 268 269 273 278 284 288 290 295 296 292 291 293 295 295 295 296 297 297 298 301 303 307 308 306 306 307
219 221 223 224 227 229 231 233 238 241 243 246 248 251 253 256 258 263 267 271 275 281 286 289 294 300 296 291 292 292 294 296 296 298 301 301 304 303 304 306 307 307 306 308
221 223 224 226 228 230 233 234 235 239 243 246 249 253 256 259 263 266 269 273 278 284 286 291 294 294 290 290 291 293 294 297 298 301 299 301 302 303 305 305 305 307 308 309
224 225 227 229 230 232 233 234 236 241 243 247 251 254 257 260 263 268 273 277 281 286 290 288 289 290 289 289 291 294 293 295 298 301 300 303 302 304 305 307 309 309 310 312
227 228 230 232 234 235 236 235 238 243 247 250 253 256 260 263 268 272 274 280 283 286 285 285 288 289 287 290 294 295 293 295 298 300 301 304 303 305 307 307 308 310 311 312
232 233 234 236 238 238 238 240 243 246 249 252 255 258 262 266 270 272 276 280 277 279 284 287 287 288 290 292 294 293 292 296 299 302 301 304 304 306 306 307 308 311 312 312
230 234 238 242 244 245 245 245 247 249 251 256 258 261 263 266 271 274 275 274 278 283 287 286 286 287 290 294 297 296 295 299 301 302 304 305 306 306 307 310 311 311 312 309
229 232 236 239 243 246 251 253 252 254 255 257 259 261 266 267 268 271 276 278 280 283 284 285 287 289 293 296 298 295 296 297 300 302 305 308 310 309 309 311 312 310 310 311
231 234 236 237 240 243 247 250 252 254 253 253 254 258 261 266 272 275 276 278 279 279 283 285 288 291 293 294 292 294 296 298 303 305 308 309 308 307 309 311 309 309 308 310
234 236 238 240 241 243 247 249 250 251 252 254 257 260 263 264 267 271 273 276 279 282 285 287 289 291 293 293 295 298 299 302 304 305 306 305 307 310 310 310 310 310 311 313
236 240 242 243 243 245 246 248 249 250 253 255 258 259 261 262 265 269 272 276 280 284 287 289 291 293 294 295 296 297 299 301 304 303 303 307 308 309 310 311 310 312 312 311
237 238 241 243 246 248 249 250 251 253 256 259 261 262 263 266 270 272 274 277 279 281 284 286 288 290 291 293 295 296 299 299 299 301 304 306 308 307 309 310 310 311 312 312
238 240 244 246 246 247 250 254 257 259 260 261 261 264 268 270 271 274 276 278 280 283 284 285 287 288 289 292 294 296 297 298 300 303 304 306 307 309 309 312 312 312 312 311
241 241 242 246 249 252 254 255 258 260 261 263 266 267 268 271 273 275 278 280 282 283 285 286 287 289 292 295 295 296 297 298 301 303 305 306 306 309 312 312 311 311 310 309
242 245 247 249 252 254 256 257 259 260 263 265 266 268 271 272 272 275 278 280 282 283 284 285 288 291 293 296 295 295 299 301 302 303 304 305 306 309 311 310 309 309 309 310
242 245 247 250 254 256 257 259 260 261 262 265 268 271 272 274 275 277 279 281 284 285 285 288 291 293 294 295 296 302 301 300 300 301 302 304 306 308 309 308 308 307 308 311
241 243 246 249 251 254 257 260 261 263 264 267 269 269 271 272 275 279 280 281 284 286 290 293 294 295 294 298 299 299 299 299 299 300 302 305 305 306 305 306 306 307 310 309
245 247 248 250 252 254 256 260 263 264 266 269 271 273 274 276 277 279 281 283 285 288 291 294 293 295 298 298 298 297 297 298 300 301 303 304 304 304 306 306 307 310 308 310
Height
10575 10581 10588 10593 10598 10604 10609 10614 10618 10622 10626 10630 10633 10635 10637 10640 10642 10644 10646 10648 10648 10648 10649 10649 10649 10648 10647 10647 10646 10645 10644 10643 10641 10639 10638 10637 10636 10635 10634 10633 10631 10627 10626 10615
10570 10578 10584 10590 10595 10600 10606 10611 10615 10619 10623 10627 10630 10632 10634 10637 10639 10641 10643 10644 10645 10646 10646 10646 10645 10644 10644 10643 10642 10641 10640 10639 10637 10636 10634 10633 10632 10630 10630 10628 10625 10620 10616 10610
10565 10573 10579 10585 10592 10597 10602 10607 10611 10615 10620 10623 10626 10628 10631 10633 10635 10638 10639 10640 10641 10642 10642 10641 10641 10640 10639 10639 10637 10636 10634 10633 10632 10629 10627 10624 10622 10623 10622 10619 10616 10613 10605 10604
10560 10568 10574 10580 10587 10592 10597 10602 10606 10611 10615 10619 10621 10624 10627 10629 10631 10633 10635 10636 10637 10637 10636 10636 10635 10635 10634 10633 10632 10631 10629 10627 10624 10622 10620 10616 10612 10612 10611 10609 10606 10603 10597 10591
10553 10561 10568 10575 10581 10586 10592 10596 10602 10606 10610 10614 10617 10619 10622 10624 10626 10628 10630 10630 10630 10630 10630 10630 10629 10629 10627 10626 10625 10624 10623 10621 10618 10611 10612 10608 10602 10603 10602 10597 10593 10589 10585 10578
10546 10554 10562 10569 10575 10581 10586 10591 10596 10600 10604 10608 10611 10614 10616 10618 10620 10622 10623 10624 10624 10623 10623 10623 10623 10622 10621 10619 10617 10615 10614 10613 10611 10605 10602 10597 10592 10592 10590 10585 10579 10575 10569 10561
10539 10547 10555 10563 10569 10575 10580 10585 10590 10594 10597 10600 10604 10607 10609 10612 10613 10615 10616 10617 10618 10617 10616 10615 10614 10613 10611 10609 10607 10606 10604 10603 10602 10599 10595 10588 10578 10582 10579 10574 10563 10558 10552 10545
10531 10539 10548 10555 10562 10567 10573 10577 10583 10586 10590 10593 10596 10599 10602 10604 10606 10607 10608 10609 10609 10609 10608 10607 10606 10604 10602 10599 10595 10594 10593 10590 10589 10588 10586 10579 10566 10569 10566 10562 10552 10543 10535 10527
10523 10531 10539 10546 10553 10559 10564 10569 10575 10578 10582 10585 10588 10591 10592 10595 10597 10599 10600 10600 10600 10600 10599 10598 10597 10594 10591 10588 10584 10581 10580 10579 10577 10576 10573 10568 10561 10558 10552 10547 10542 10531 10522 10514
10514 10521 10529 10535 10542 10549 10555 10560 10565 10569 10573 10576 10579 10581 10583 10586 10589 10589 10590 10589 10588 10589 10589 10588 10586 10584 10580 10576 10571 10570 10568 10568 10564 10563 10559 10554 10548 10543 10536 10532 10526 10517 10507 10498
10504 10512 10519 10525 10532 10538 10544 10550 10555 10559 10563 10566 10569 10571 10574 10577 10579 10580 10579 10579 10578 10579 10577 10576 10575 10573 10569 10564 10560 10556 10554 10557 10553 10551 10542 10536 10532 10525 10519 10513 10506 10495 10484 10475
10496 10503 10509 10516 10523 10528 10534 10539 10544 10549 10552 10555 10558 10562 10564 10567 10569 10569 10568 10567 10567 10567 10565 10564 10564 10561 10557 10554 10551 10544 10538 10538 10540 10537 10526 10519 10515 10507 10499 10491 10484 10475 10463 10453
10486 10494 10501 10507 10513 10519 10524 10529 10533 10537 10540 10544 10548 10551 10553 10555 10556 10557 10556 10555 10555 10554 10552 10550 10550 10549 10546 10542 10541 10536 10524 10522 10524 10521 10507 10503 10493 10486 10479 10472 10462 10450 10435 10422
10477 10484 10491 10497 10503 10508 10513 10518 10522 10526 10529 10533 10536 10539 10542 10543 10545 10544 10543 10543 10541 10540 10539 10537 10536 10534 10534 10533 10529 10523 10507 10509 10506 10503 10493 10490 10474 10469 10459 10449 10436 10426 10414 10401
10467 10475 10481 10486 10491 10496 10502 10507 10511 10514 10516 10521 10523 10527 10530 10531 10531 10530 10529 10528 10526 10525 10525 10524 10522 10517 10517 10520 10516 10508 10494 10493 10490 10489 10479 10473 10466 10453 10440 10428 10418 10405 10392 10377
10457 10464 10469 10474 10479 10485 10490 10495 10498 10500 10503 10510 10510 10515 10516 10517 10516 10514 10512 10512 10512 10512 10513 10510 10508 10502 10501 10505 10501 10489 10479 10475 10470 10466 10457 10450 10443 10433 10419 10405 10394 10381 10364 10346
10444 10450 10456 10461 10466 10473 10478 10483 10485 10485 10490 10494 10498 10502 10502 10499 10499 10498 10497 10496 10496 10498 10498 10496 10491 10487 10484 10484 10479 10467 10461 10455 10449 10443 10433 10423 10411 10400 10391 10381 10368 10353 10335 10318
10430 10436 10441 10445 10453 10460 10466 10468 10468 10468 10472 10478 10488 10492 10490 10484 10482 10478 10477 10478 10478 10483 10483 10482 10476 10473 10467 10465 10454 10448 10440 10434 10429 10422 10411 10398 10386 10373 10364 10351 10337 10325 10307 10289
10416 10421 10426 10432 10440 10447 10451 10448 10450 10453 10457 10466 10476 10479 10477 10476 10466 10461 10458 10459 10460 10464 10463 10460 10458 10455 10449 10440 10432 10428 10419 10412 10406 10397 10386 10373 10361 10349 10334 10319 10305 10292 10280 10265
10400 10404 10410 10419 10428 10430 10432 10430 10433 10436 10444 10453 10461 10462 10459 10455 10450 10449 10449 10449 10449 10450 10449 10441 10440 10436 10425 10416 10413 10406 10401 10390 10380 10369 10358 10350 10336 10321 10308 10291 10277 10263 10253 10242
10379 10386 10395 10403 10408 10411 10411 10413 10418 10425 10436 10443 10445 10442 10437 10435 10434 10433 10434 10434 10434 10437 10436 10427 10428 10422 10406 10400 10394 10386 10376 10366 10356 10347 10338 10325 10312 10301 10289 10273 10256 10242 10227 10210
10367 10374 10378 10381 10385 10388 10393 10401 10411 10417 10419 10422 10419 10417 10418 10418 10417 10414 10414 10413 10413 10414 10412 10409 10408 10397 10387 10382 10373 10364 10353 10341 10332 10322 10309 10297 10283 10270 10258 10246 10234 10220 10205 10186
10348 10353 10356 10360 10367 10371 10381 10390 10394 10392 10395 10395 10399 10399 10399 10398 10396 10394 10392 10390 10390 10388 10389 10383 10375 10370 10365 10357 10347 10336 10325 10318 10309 10294 10282 10269 10257 10243 10228 10218 10207 10196 10183 10163
10331 10333 10337 10345 10349 10356 10363 10367 10371 10374 10374 10375 10377 10376 10377 10376 10372 10371 10370 10367 10365 10362 10361 10354 10350 10346 10338 10328 10316 10307 10302 10292 10278 10266 10255 10242 10231 10221 10206 10193 10182 10171 10155 10141
10314 10319 10320 10330 10333 10336 10339 10341 10346 10349 10352 10354 10354 10354 10354 10352 10348 10349 10346 10339 10335 10333 10329 10330 10326 10319 10309 10295 10287 10284 10274 10262 10251 10238 10228 10217 10205 10197 10187 10172 10160 10144 10131 10121
10293 10300 10309 10310 10311 10312 10318 10321 10325 10326 10328 10330 10330 10330 10329 10327 10326 10325 10319 10312 10304 10303 10306 10304 10297 10286 10272 10269 10263 10254 10245 10235 10223 10213 10202 10192 10182 10172 10163 10153 10136 10122 10111 10100
10273 10282 10284 10287 10288 10292 10298 10301 10304 10303 10305 10306 10304 10306 10302 10303 10302 10297 10289 10284 10286 10286 10283 10275 10261 10254 10250 10242 10235 10227 10217 10208 10196 10187 10177 10165 10155 10146 10140 10129 10114 10101 10090 10082